Regional Weather Roundup
Issued by NWS

Home | Current Version | Previous Version | Graphics & Text | Print | Product List | Glossary On
Versions: 1 2 3 4 5 6 7 8 9 10 11 12 13 14 15 16 17 18 19 20 21 22 23 24 25 26 27 28 29 30 31 32 33 34 35 36 37 38 39 40 41 42 43 44 45 46 47 48 49 50
000
ASUS43 KDTX 202110
RWRMI
MICHIGAN HOURLY REGIONAL WEATHER ROUNDUP
NATIONAL WEATHER SERVICE DETROIT/PONTIAC MI
500 PM EDT WED MAR 20 2019

NOTE: "FAIR" INDICATES FEW OR NO CLOUDS BELOW 12,000 FEET WITH NO
SIGNIFICANT WEATHER AND/OR OBSTRUCTION TO VISIBILITY.

MIZ047>049-052>055-059>063-066>070-074>076-081>083-202200-
SOUTHEAST LOWER MICHIGAN

CITY           SKY/WX    TMP DP  RH WIND       PRES   REMARKS
ADRIAN         LGT RAIN  42  35  76 S10       30.01F
ALMA           LGT SNOW  35  33  92 S5        29.98F WCI  31
ANN ARBOR      LGT RAIN  40  37  89 S7        30.01F FOG
BAD AXE        LGT RAIN  40  36  84 SW10      30.01S WCI  34
CARO           LGT RAIN  39  36  90 S13       30.00F WCI  31
DETROIT CITY   CLOUDY    42  36  79 SE8       30.04F
DETROIT        LGT RAIN  43  34  70 S13       30.03F
FLINT          LGT RAIN  38  35  89 S8        30.01F FOG     WCI  32
GROSSE ILE     LGT RAIN  41  36  80 S10G16    30.03F
HILLSDALE      LGT RAIN  40  35  82 S7        29.96F WCI  35
HOWELL         MIX PCPN  37  35  92 S8        30.00S WCI  30

CITY           SKY/WX    TMP DP  RH WIND       PRES   REMARKS
JACKSON        MIX PCPN  37  37 100 SE5       29.98F FOG     WCI  33
LAMBERTVILLE   CLOUDY    46  32  59 S6        30.01F
LANSING        MIX PCPN  36  35  96 S10       29.98F FOG     WCI  28
LAPEER         LGT RAIN  39  36  89 S9        30.02F WCI  33
MASON          LGT RAIN  37  35  94 S8        29.98F WCI  30
MONROE         CLOUDY    43  37  78 SE6       30.01F
MT. CLEMENS    LGT RAIN  40  40 100 SE12      30.03F FOG     WCI  33
PONTIAC        LGT RAIN  39  37  92 SE10      30.00F FOG     WCI  32
PORT HOPE        N/A     45  34  65 SW10G20   30.00R
PORT HURON     LGT RAIN  41  34  75 S15       30.06R
TRI CITIES     LGT RAIN  38  36  92 S12       29.99F FOG     WCI  30
MIDLAND        LGT RAIN  38  35  89 S8        29.98F WCI  32
TROY           LGT RAIN  41  36  81 SE6       30.05F
SAGINAW HB     DRIZZLE   41  37  87 S13       30.00F
$$
MIZ043>046-050>051-056>058-064>065-071>073-077>080-202200-
SOUTHWEST LOWER MICHIGAN

CITY           SKY/WX    TMP DP  RH WIND       PRES   REMARKS
BATTLE CREEK   LGT RAIN  38  36  92 S12       29.95F FOG     WCI  30
BENTON HARBOR  LGT RAIN  40  37  89 S6        29.94F FOG
BIG RAPIDS     FLURRIES  36  34  94 S6        29.94S WCI  31
COLDWATER      LGT RAIN  40  38  94 S8        29.96F WCI  35
FREMONT        LGT RAIN  35  35  99 SE3       29.94S
HOLLAND        LGT SNOW  34  32  92 S5        29.94F FOG     WCI  30
GRAND RAPIDS   LGT SNOW  33  33 100 SE6       29.95F VSB 3/4 WCI  28
IONIA          LGT SNOW  33  32  96 SE7       29.95F VSB 1   WCI  27
KALAMAZOO      LGT RAIN  38  37  97 S7        29.95F FOG     WCI  33
LUDINGTON      CLOUDY    38  36  91 S8        29.91F FOG     WCI  33
MARSHALL       DRIZZLE   37  37 100 SE6       29.95F WCI  33
MOUNT PLEASANT LGT RAIN  36  33  89 S6        29.97S WCI  31
MUSKEGON       LGT SNOW  35  32  88 SE7       29.94F FOG     WCI  29
SOUTH HAVEN    LGT RAIN  39  37  90 S7        29.94S WCI  34
$$
MIZ016>042-202200-
NORTHERN LOWER MICHIGAN

CITY           SKY/WX    TMP DP  RH WIND       PRES   REMARKS
ALPENA         CLOUDY    46  29  51 SW9       29.95R
BEAVER ISLAND  DRIZZLE   35  34  93 SW10G16   29.92S WCI  28
BELLAIRE       LGT RAIN  43  33  66 S7        29.91F
CADILLAC       CLOUDY    39  37  94 S7        29.91S FOG     WCI  34
CHARLEVOIX     LGT RAIN  41  37  84 CALM      29.94S
FRANKFORT      DRIZZLE   43  37  78 CALM      29.90S
GAYLORD        CLOUDY    39  31  72 SW12      29.90F WCI  32
GRAYLING         N/A     41  33  72 SW6       29.91F
HARBOR SPRINGS RAIN      39  38  96 CALM      29.92F
HOUGHTON LAKE  CLOUDY    40  33  76 S6        29.93S
MANISTEE       CLOUDY    39  36  89 VRB7      29.90F WCI  34
OSCODA         CLOUDY    40  33  75 S15G21    29.98S WCI  32
PELLSTON       LGT RAIN  40  35  83 SW5       29.93S
ROGERS CITY    CLOUDY    44  31  60 SW5       29.94S
TRAVERSE CITY  CLOUDY    45  34  65 S8        29.89F
$$
MIZ007>008-015-202200-
EASTERN UPPER MICHIGAN

CITY           SKY/WX    TMP DP  RH WIND       PRES   REMARKS
KINROSS        LGT RAIN  39  33  79 SW9       29.93R WCI  33
MACKINAC ISLAN CLOUDY    38  33  82 SW9       29.92S WCI  31
NEWBERRY       CLOUDY    35  33  92 S6        29.90R FOG     WCI  30
S. S. MARIE    CLOUDY    40  36  86 CALM      29.91S FOG
MUNISING         N/A     43  32  65 SW3       29.85R
$$
MIZ004>006-011>014-085-202200-
CENTRAL UPPER MICHIGAN

CITY           SKY/WX    TMP DP  RH WIND       PRES   REMARKS
MANISTIQUE     DRIZZLE   34  29  82 S5        29.89S WCI  30
ESCANABA       FAIR      38  33  82 S8        29.87R WCI  32
MENOMINEE      CLOUDY    43  34  70 S9        29.86S
SAWYER-GWINN   LGT SNOW  34  32  93 NE6       29.84R WCI  29
$$
MIZ001>003-009>011-084-202200-
WESTERN UPPER MICHIGAN

CITY           SKY/WX    TMP DP  RH WIND       PRES   REMARKS
IRON MOUNTAIN  CLOUDY    37  34  89 CALM      29.83R
HOUGHTON       CLOUDY    34  31  88 NW6       29.86R WCI  29
COPPER HARBOR    N/A     35  32  88 CALM      29.89R
IRONWOOD       LGT RAIN  35  31  85 N7        29.90R WCI  29
$$

ABBREVIATIONS USED IN REMARKS
   TC - TEMPERATURE IN CELSIUS
  WCI - WIND CHILL INDEX
   HX - HEAT INDEX
  VSB - VISIBILITY




USA.gov is the U.S. government's official web portal to all federal, state and local government web resources and services.